Platteville, WI

11:19 PM CST on February 06, 2016 (GMT -0600)
Platteville Municipal

Weather History for KPVB - October, 2013

Change the Weather History Date:

Thursday, October 17, 2013

  Actual Average (KDBQ) Record (KDBQ)
Temperature  
Mean Temperature 49 °F 50 °F  
Max Temperature 56 °F 60 °F 86 °F (1950)
Min Temperature 42 °F 40 °F 22 °F (2004)
Degree Days  
Heating Degree Days 16 15  
Month to date heating degree days 218  
Since 1 July heating degree days 396  
Cooling Degree Days 0 0  
Month to date cooling degree days 4  
Year to date cooling degree days 641  
Moisture  
Dew Point 40 °F    
Average Humidity 76    
Maximum Humidity 93    
Minimum Humidity 43    
Precipitation  
Precipitation 0.05 in 0.08 in 2.24 in (1905)
Month to date precipitation 1.45  
Year to date precipitation 30.89  
Snow  
Snow 0.00 in 0.00 in - ()
Month to date snowfall 0.0  
Since 1 July snowfall 0.0  
Since 1 September snowfall 0.0  
Snow Depth -    
Sea Level Pressure  
Sea Level Pressure 29.87 in    
Wind  
Wind Speed 4 mph (SW)    
Max Wind Speed 10 mph    
Max Gust Speed 16 mph    
Visibility 9 miles    
Events      
T = Trace of Precipitation, MM = Missing Value Source: NWS Daily Summary

Daily Weather History Graph

Daily Weather History Graph

Search for Another Location

Airport or City:

Trip Planner

Search our weather history database for the weather conditions in past years. The results will help you decide how hot, cold, wet, or windy it might be!

Date:

Astronomy

Oct. 17, 2013 Rise Set
Actual Time 7:17 AM CDT 6:15 PM CDT
Civil Twilight 6:49 AM CDT 6:44 PM CDT
Nautical Twilight 6:16 AM CDT 7:17 PM CDT
Astronomical Twilight 5:43 AM CDT 7:49 PM CDT
Moon 5:30 PM CDT (10/17) 5:48 AM CDT (10/17)
Length of Visible Light 11h 55m
Length of Day
10h 58m
Waxing Gibbous, 98% of the Moon is Illuminated
Oct 17
Waxing Gibbous
Oct 18
Full
Oct 26
Last Quarter
Nov 3
New
Nov 9
First Quarter

Hourly Weather History & Observations

Time (CDT) Temp. Windchill Dew Point Humidity Pressure Visibility Wind Dir Wind Speed Gust Speed Precip Events Conditions
12:15 AM 47.3 °F - 44.1 °F 88% 29.93 in 10.0 mi West 3.5 mph - N/A   Overcast
12:35 AM 47.3 °F - 44.1 °F 88% 29.94 in 10.0 mi WSW 3.5 mph - N/A   Overcast
12:55 AM 47.3 °F - 43.9 °F 88% 29.93 in 10.0 mi WSW 3.5 mph - N/A   Overcast
1:15 AM 46.9 °F - 44.1 °F 90% 29.92 in 10.0 mi West 3.5 mph - N/A   Overcast
1:35 AM 46.8 °F - 44.1 °F 90% 29.92 in 10.0 mi West 3.5 mph - N/A   Overcast
1:55 AM 46.4 °F - 43.7 °F 90% 29.92 in 10.0 mi Calm Calm - N/A   Scattered Clouds
2:15 AM 46.4 °F 45.2 °F 43.9 °F 91% 29.92 in 10.0 mi WSW 3.5 mph - N/A   Mostly Cloudy
2:35 AM 46.4 °F 45.2 °F 44.1 °F 92% 29.92 in 10.0 mi WSW 3.5 mph - N/A   Overcast
2:55 AM 46.4 °F 45.2 °F 43.9 °F 91% 29.91 in 10.0 mi West 3.5 mph - N/A   Mostly Cloudy
3:15 AM 46.0 °F 43.9 °F 43.7 °F 92% 29.90 in 10.0 mi West 4.6 mph - N/A   Mostly Cloudy
3:35 AM 45.9 °F 43.6 °F 43.7 °F 92% 29.90 in 7.0 mi West 4.6 mph - N/A   Overcast
3:55 AM 45.9 °F - 43.3 °F 91% 29.90 in 10.0 mi Calm Calm - N/A   Overcast
4:15 AM 45.7 °F 43.4 °F 43.2 °F 91% 29.90 in 10.0 mi WSW 4.6 mph - N/A   Overcast
4:35 AM 45.5 °F 43.2 °F 42.8 °F 90% 29.90 in 7.0 mi WSW 4.6 mph - N/A   Overcast
4:55 AM 45.1 °F - 42.4 °F 90% 29.90 in 5.0 mi Calm Calm - N/A   Overcast
5:15 AM 45.0 °F 43.5 °F 42.8 °F 92% 29.90 in 3.0 mi West 3.5 mph - N/A   Overcast
5:35 AM 44.6 °F 43.1 °F 42.8 °F 93% 29.89 in 5.0 mi West 3.5 mph - N/A   Overcast
5:55 AM 45.0 °F - 43.0 °F 93% 29.89 in 5.0 mi Calm Calm - N/A   Overcast
6:15 AM 45.0 °F 43.5 °F 43.2 °F 93% 29.88 in 7.0 mi West 3.5 mph - N/A   Overcast
6:35 AM 45.0 °F 43.5 °F 43.2 °F 93% 29.88 in 7.0 mi West 3.5 mph - N/A   Overcast
6:55 AM 45.0 °F 42.6 °F 43.2 °F 93% 29.88 in 10.0 mi West 4.6 mph - N/A   Mostly Cloudy
7:15 AM 44.8 °F - 42.8 °F 93% 29.88 in 10.0 mi Calm Calm - N/A   Scattered Clouds
7:35 AM 44.6 °F - 42.4 °F 92% 29.89 in 7.0 mi Calm Calm - N/A   Mostly Cloudy
7:55 AM 44.6 °F - 42.3 °F 91% 29.89 in 5.0 mi Calm Calm - 0.01 in   Overcast
8:15 AM 44.2 °F - 42.1 °F 92% 29.89 in 5.0 mi Calm Calm - 0.01 in   Overcast
8:35 AM 44.4 °F - 42.1 °F 91% 29.89 in 7.0 mi Calm Calm - 0.02 in   Scattered Clouds
8:55 AM 44.6 °F - 42.1 °F 91% 29.89 in 7.0 mi Calm Calm - 0.02 in   Scattered Clouds
9:15 AM 45.0 °F - 42.8 °F 92% 29.89 in 7.0 mi Calm Calm - 0.01 in   Mostly Cloudy
9:35 AM 45.5 °F 44.2 °F 43.3 °F 92% 29.89 in 7.0 mi WSW 3.5 mph - 0.01 in   Mostly Cloudy
9:55 AM 45.5 °F 44.2 °F 43.0 °F 91% 29.89 in 10.0 mi West 3.5 mph - 0.02 in   Mostly Cloudy
10:15 AM 46.2 °F 45.0 °F 43.5 °F 90% 29.89 in 10.0 mi SW 3.5 mph - N/A   Clear
10:35 AM 46.8 °F - 43.7 °F 89% 29.89 in 10.0 mi SW 4.6 mph - N/A   Scattered Clouds
10:55 AM 46.9 °F - 43.9 °F 89% 29.89 in 10.0 mi SW 6.9 mph - N/A   Mostly Cloudy
11:15 AM 47.3 °F - 43.9 °F 88% 29.89 in 10.0 mi WSW 4.6 mph - N/A   Overcast
11:35 AM 48.2 °F - 44.1 °F 86% 29.88 in 10.0 mi SW 3.5 mph - N/A   Mostly Cloudy
11:55 AM 48.7 °F - 44.1 °F 84% 29.87 in 10.0 mi WSW 3.5 mph - N/A   Mostly Cloudy
12:15 PM 51.1 °F - 43.5 °F 75% 29.87 in 10.0 mi SW 4.6 mph - N/A   Mostly Cloudy
12:35 PM 52.0 °F - 42.8 °F 71% 29.87 in 10.0 mi WSW 6.9 mph - N/A   Mostly Cloudy
12:55 PM 53.6 °F - 42.3 °F 65% 29.86 in 10.0 mi WSW 9.2 mph - N/A   Mostly Cloudy
1:15 PM 55.0 °F - 41.7 °F 61% 29.85 in 10.0 mi SW 10.4 mph - N/A   Mostly Cloudy
1:35 PM 55.9 °F - 39.9 °F 55% 29.84 in 10.0 mi WSW 9.2 mph 16.1 mph N/A   Mostly Cloudy
1:55 PM 52.9 °F - 39.2 °F 60% 29.84 in 10.0 mi SW 9.2 mph - N/A   Mostly Cloudy
2:15 PM 54.0 °F - 39.0 °F 57% 29.84 in 10.0 mi West 6.9 mph - N/A   Mostly Cloudy
2:35 PM 53.8 °F - 37.2 °F 54% 29.83 in 10.0 mi WSW 6.9 mph - N/A   Mostly Cloudy
2:55 PM 55.2 °F - 37.2 °F 51% 29.83 in 10.0 mi WSW 8.1 mph - N/A   Mostly Cloudy
3:15 PM 55.2 °F - 35.4 °F 47% 29.83 in 10.0 mi SW 5.8 mph - N/A   Overcast
3:35 PM 55.6 °F - 33.3 °F 43% 29.83 in 10.0 mi WSW 6.9 mph - N/A   Scattered Clouds
3:55 PM 56.7 °F - 34.2 °F 43% 29.83 in 10.0 mi West 9.2 mph - N/A   Mostly Cloudy
4:15 PM 55.2 °F - 34.5 °F 46% 29.83 in 10.0 mi West 5.8 mph - N/A   Mostly Cloudy
4:35 PM 54.7 °F - 34.3 °F 46% 29.82 in 10.0 mi West 3.5 mph - N/A   Mostly Cloudy
4:55 PM 54.7 °F - 34.3 °F 46% 29.82 in 10.0 mi WNW 3.5 mph - N/A   Scattered Clouds
5:15 PM 54.9 °F - 34.3 °F 46% 29.83 in 10.0 mi West 3.5 mph - N/A   Scattered Clouds
5:35 PM 53.6 °F - 34.0 °F 47% 29.83 in 10.0 mi WSW 3.5 mph - N/A   Scattered Clouds
5:55 PM 52.0 °F - 34.9 °F 52% 29.84 in 10.0 mi WSW 4.6 mph - N/A   Clear
6:15 PM 50.2 °F - 34.7 °F 55% 29.84 in 10.0 mi WSW 3.5 mph - N/A   Clear
6:35 PM 48.6 °F - 36.5 °F 63% 29.84 in 10.0 mi Calm Calm - N/A   Clear
6:55 PM 46.8 °F - 35.8 °F 66% 29.84 in 10.0 mi Calm Calm - N/A   Clear
7:15 PM 47.3 °F - 35.4 °F 63% 29.84 in 10.0 mi Calm Calm - N/A   Clear
7:35 PM 46.8 °F - 35.6 °F 65% 29.84 in 10.0 mi SSE 3.5 mph - N/A   Clear
7:55 PM 45.5 °F 44.2 °F 36.1 °F 70% 29.84 in 10.0 mi SSE 3.5 mph - N/A   Clear
8:15 PM 45.5 °F 44.2 °F 36.0 °F 69% 29.84 in 10.0 mi SE 3.5 mph - N/A   Clear
8:35 PM 44.6 °F - 36.5 °F 73% 29.84 in 10.0 mi Calm Calm - N/A   Clear
8:55 PM 45.0 °F 41.8 °F 36.0 °F 71% 29.84 in 10.0 mi SE 5.8 mph - N/A   Clear
9:15 PM 44.1 °F 40.8 °F 36.5 °F 75% 29.84 in 10.0 mi SSE 5.8 mph - N/A   Clear
9:35 PM 44.2 °F 41.0 °F 36.9 °F 75% 29.84 in 10.0 mi SSE 5.8 mph - N/A   Clear
9:55 PM 43.7 °F 41.1 °F 36.1 °F 75% 29.84 in 10.0 mi SSE 4.6 mph - N/A   Clear
10:15 PM 43.7 °F 41.1 °F 36.0 °F 74% 29.84 in 10.0 mi SSE 4.6 mph - N/A   Clear
10:35 PM 43.2 °F 39.7 °F 36.0 °F 76% 29.84 in 10.0 mi SSE 5.8 mph - N/A   Clear
10:55 PM 43.7 °F 40.3 °F 36.0 °F 74% 29.84 in 10.0 mi South 5.8 mph - N/A   Clear
11:15 PM 43.3 °F 40.7 °F 36.5 °F 77% 29.84 in 10.0 mi South 4.6 mph - N/A   Clear
11:35 PM 42.4 °F 38.8 °F 36.7 °F 80% 29.84 in 10.0 mi South 5.8 mph - N/A   Clear
11:55 PM 43.9 °F 41.3 °F 36.9 °F 76% 29.83 in 10.0 mi South 4.6 mph - N/A   Scattered Clouds